一网星座-0145星 (ONEWEB-0145 )

导读

ONEWEB-0145是英国OneWeb星座计划中的一颗低轨宽带通信卫星,于2020年12月18日成功发射。卫星重约147.5公斤,运行在1200公里近极轨道,设计寿命5年。它配备Ku/Ka波段天线,搭载霍尔效应推进器,单星通信能力可达约7.5Gbps,为全球用户提供高速卫星互联网接入服务,是OneWeb第一代全球卫星星座部署的重要组成部分,支撑起覆盖偏远地区、航空航海的宽带连接。

基本信息
目录编号:
47291
目录名称:
ONEWEB-0145
国际标识:
2020-100AK
轨道中心:
EARTH
卫星名称:
一网星座-0145星
卫星全名:
一网星座-0145星 (ONEWEB-0145 )
卫星状态:
在轨 (已飞行2004 天)
发射日期:
2020-12-18 UTC
国别 :
英国 (GB)
星等 :
--
轨道信息
数据来源 国际轨道数据
星历时间: 2026-06-14T05:45:29+0800
12小时前
查看轨道信息
半长轴: 7591.861km
偏心率: 0.0001813
轨道倾角: 87.894°
近地点辐角 93.176°
升交点赤经 351.322°
平近点角 266.957°
近地点: 1212.347km
远地点: 1215.101km
周期: 109.719分钟
每日圈数: 13.124429
详细信息
平衡模式:
三轴稳定
覆盖范围:
全球
运营商:
一网卫星公司
运营商所在国:
英国
制造商(研发单位):
一网卫星公司
制造商所在国:
英国
使用方式:
暂无
卫星简介
OneWeb卫星网络由648颗重约125公斤的微型卫星组成,运行在1200公里的轨道上。 每颗卫星都能够提供至少每秒8千兆位的吞吐量,以使用其高吞吐量的Ku频段有效载荷为家庭和移动平台提供互联网接入。该卫星仍在工作。
2D轨道图
3D轨道图
轨道高度分析图
轨道倾角分析图
轨道综合分析图
查看轨道综合分析图